This is the latest recevied weather packets stored in our database for station/object KD4UFD. If no packets are shown the sender has not sent any weather packets the latest 1 day(s).
| Time | Temp. | Humidity | Pressure | Rain* | Wind** | Luminosity | Snow |
|---|---|---|---|---|---|---|---|
| 1778002704 | 22.78° C | 50% | 1014.2 hPa | 0 mm | 1.79 m/s, 219° | 660 W/m² | - |
| 1778002401 | 23.33° C | 53% | 1014.1 hPa | 0 mm | 2.24 m/s, 242° | 367 W/m² | - |
| 1778002098 | 23.33° C | 51% | 1014.3 hPa | 0 mm | 1.34 m/s, 233° | 365 W/m² | - |
| 1778001796 | 22.78° C | 51% | 1014.2 hPa | 0 mm | 1.34 m/s, 218° | 672 W/m² | - |
| 1778001490 | 22.22° C | 54% | 1014.1 hPa | 0 mm | 2.24 m/s, 4° | 532 W/m² | - |
| 1778001187 | 22.78° C | 53% | 1014.2 hPa | 0 mm | 2.68 m/s, 216° | 373 W/m² | - |
| 1778000883 | 22.78° C | 53% | 1014.3 hPa | 0 mm | 0.89 m/s, 41° | 378 W/m² | - |
| 1778000581 | 22.78° C | 52% | 1014.2 hPa | 0 mm | 1.34 m/s, 230° | 433 W/m² | - |
| 1778000275 | 22.78° C | 55% | 1014.3 hPa | 0 mm | 1.34 m/s, 235° | 385 W/m² | - |
| 1777999972 | 22.78° C | 57% | 1014.5 hPa | 0 mm | 1.34 m/s, 332° | 444 W/m² | - |
| 1777999668 | 23.33° C | 56% | 1014.5 hPa | 0 mm | 1.34 m/s, 230° | 523 W/m² | - |
| 1777999365 | 23.33° C | 55% | 1014.6 hPa | 0 mm | 1.34 m/s, 0° | 434 W/m² | - |
| 1777999063 | 22.78° C | 57% | 1014.8 hPa | 0 mm | 0.45 m/s, 228° | 348 W/m² | - |
| 1777998761 | 22.78° C | 56% | 1015 hPa | 0 mm | 0.89 m/s, 204° | 420 W/m² | - |
| 1777998458 | 22.22° C | 56% | 1014.7 hPa | 0 mm | 1.79 m/s, 244° | 400 W/m² | - |
| 1777998155 | 22.78° C | 54% | 1014.8 hPa | 0 mm | 1.79 m/s, 232° | 393 W/m² | - |
| 1777997852 | 22.78° C | 58% | 1014.7 hPa | 0 mm | 0.89 m/s, 230° | 456 W/m² | - |
| 1777997550 | 22.78° C | 57% | 1014.8 hPa | 0 mm | 0.89 m/s, 201° | 488 W/m² | - |
| 1777997247 | 23.33° C | 57% | 1014.8 hPa | 0 mm | 0.89 m/s, 291° | 492 W/m² | - |
| 1777996945 | 23.33° C | 55% | 1014.8 hPa | 0 mm | 0.89 m/s, 236° | 507 W/m² | - |
| 1777996641 | 22.78° C | 56% | 1014.8 hPa | 0 mm | 1.79 m/s, 176° | 543 W/m² | - |
| 1777996337 | 22.22° C | 58% | 1014.6 hPa | 0 mm | 1.34 m/s, 167° | 750 W/m² | - |
| 1777996033 | 21.67° C | 59% | 1014.9 hPa | 0 mm | 1.79 m/s, 236° | 506 W/m² | - |
| 1777995730 | 22.22° C | 60% | 1014.6 hPa | 0 mm | 0.45 m/s, 208° | 392 W/m² | - |
| 1777995426 | 21.67° C | 61% | 1014.7 hPa | 0 mm | 0.89 m/s, 219° | 434 W/m² | - |
* Rain latest hour (hover to see other rain measurements)
** Current wind speed in m/s (hover to see current wind gust speed)